Weather History for Bentonville, AR

Change the Weather History Date:

Tuesday, October 22, 2013

  Actual Average Record
Temperature  
Mean Temperature 50 °F -  
Max Temperature 66 °F 69 °F 87 °F (1950)
Min Temperature 35 °F 43 °F 23 °F (1952)
Degree Days  
Heating Degree Days 14    
Moisture  
Dew Point 38 °F    
Average Humidity 66    
Maximum Humidity 93    
Minimum Humidity 42    
Precipitation  
Precipitation 0.00 in - - ()
Sea Level Pressure  
Sea Level Pressure 30.02 in    
Wind  
Wind Speed 5 mph (West)    
Max Wind Speed 17 mph    
Max Gust Speed 25 mph    
Visibility 10 miles    
Events      
Averages and records for this station are not official NWS values.
T = Trace of Precipitation, MM = Missing Value Source: NWS Daily Summary

Daily Weather History Graph

Daily Weather History Graph

Search for Another Location

Airport:

Trip Planner

Search our weather history database for the weather conditions in past years. The results will help you decide how hot, cold, wet, or windy it might be!

Date:

Astronomy

Oct. 22, 2013 Rise Set
Actual Time 7:30 AM CDT 6:31 PM CDT
Civil Twilight 7:04 AM CDT 6:57 PM CDT
Nautical Twilight 6:34 AM CDT 7:27 PM CDT
Astronomical Twilight 6:04 AM CDT 7:57 PM CDT
Moon 9:16 PM CDT (10/22) 10:55 AM CDT (10/22)
Length of Visible Light 11h 53m
Length of Day
11h 00m
Waning Gibbous, 86% of the Moon is Illuminated
Oct 22
Waning Gibbous
Oct 26
Last Quarter
Nov 3
New
Nov 9
First Quarter
Nov 17
Full

Hourly Weather History & Observations

Time (CDT) Temp. Windchill Dew Point Humidity Pressure Visibility Wind Dir Wind Speed Gust Speed Precip Events Conditions
12:15 AM 37.4 °F - 33.8 °F 87% 30.10 in 10.0 mi Calm Calm - N/A   Clear
12:35 AM 37.4 °F - 33.8 °F 87% 30.09 in 10.0 mi Calm Calm - N/A   Clear
12:55 AM 35.6 °F - 30.2 °F 81% 30.09 in 10.0 mi Calm Calm - N/A   Clear
1:15 AM 35.6 °F 32.8 °F 33.8 °F 93% 30.08 in 10.0 mi SSE 3.5 mph - N/A   Clear
1:35 AM 35.6 °F 31.7 °F 32.0 °F 87% 30.09 in 10.0 mi South 4.6 mph - N/A   Clear
1:55 AM 37.4 °F - 33.8 °F 87% 30.08 in 10.0 mi Calm Calm - N/A   Clear
2:15 AM 35.6 °F 32.8 °F 33.8 °F 93% 30.08 in 10.0 mi SSE 3.5 mph - N/A   Clear
2:35 AM 37.4 °F 34.9 °F 33.8 °F 87% 30.08 in 10.0 mi South 3.5 mph - N/A   Clear
2:55 AM 37.4 °F 34.9 °F 33.8 °F 87% 30.07 in 9.0 mi South 3.5 mph - N/A   Clear
3:15 AM 37.4 °F - 33.8 °F 87% 30.07 in 4.0 mi Calm Calm - N/A   Clear
3:35 AM 39.2 °F 37.0 °F 35.6 °F 87% 30.06 in 8.0 mi South 3.5 mph - N/A   Clear
3:55 AM 37.4 °F - 35.6 °F 93% 30.06 in 8.0 mi Calm Calm - N/A   Clear
4:15 AM 35.6 °F - 33.8 °F 93% 30.06 in 5.0 mi Calm Calm - N/A   Clear
4:35 AM 35.6 °F - 32.0 °F 87% 30.06 in 0.8 mi Calm Calm - N/A   Unknown
4:55 AM 35.6 °F 32.8 °F 33.8 °F 93% 30.05 in 7.0 mi South 3.5 mph - N/A   Clear
5:15 AM 35.6 °F - 33.8 °F 93% 30.06 in 8.0 mi Calm Calm - N/A   Clear
5:35 AM 35.6 °F - 33.8 °F 93% 30.06 in 10.0 mi Calm Calm - N/A   Clear
5:55 AM 35.6 °F 32.8 °F 33.8 °F 93% 30.06 in 10.0 mi South 3.5 mph - N/A   Clear
6:15 AM 35.6 °F 30.7 °F 33.8 °F 93% 30.06 in 10.0 mi South 5.8 mph - N/A   Clear
6:35 AM 37.4 °F 33.8 °F 33.8 °F 87% 30.06 in 10.0 mi South 4.6 mph - N/A   Clear
6:55 AM 35.6 °F 32.8 °F 33.8 °F 93% 30.05 in 10.0 mi South 3.5 mph - N/A   Clear
7:15 AM 35.6 °F 32.8 °F 33.8 °F 93% 30.06 in 10.0 mi SSW 3.5 mph - N/A   Clear
7:35 AM 37.4 °F 34.9 °F 33.8 °F 87% 30.06 in 10.0 mi South 3.5 mph - N/A   Clear
7:55 AM 35.6 °F 31.7 °F 33.8 °F 93% 30.06 in 10.0 mi South 4.6 mph - N/A   Mostly Cloudy
8:15 AM 37.4 °F 34.9 °F 35.6 °F 93% 30.06 in 10.0 mi SSW 3.5 mph - N/A   Overcast
8:35 AM 41.0 °F 37.1 °F 35.6 °F 81% 30.05 in 10.0 mi South 5.8 mph - N/A   Mostly Cloudy
8:55 AM 42.8 °F 38.6 °F 37.4 °F 81% 30.05 in 10.0 mi SSW 6.9 mph - N/A   Scattered Clouds
9:15 AM 44.6 °F 40.7 °F 37.4 °F 76% 30.05 in 10.0 mi SW 6.9 mph - N/A   Scattered Clouds
9:35 AM 44.6 °F 40.7 °F 37.4 °F 76% 30.05 in 10.0 mi SW 6.9 mph - N/A   Mostly Cloudy
9:55 AM 46.4 °F 42.4 °F 37.4 °F 71% 30.04 in 10.0 mi SSW 8.1 mph - N/A   Mostly Cloudy
10:15 AM 48.2 °F - 39.2 °F 71% 30.04 in 10.0 mi SW 11.5 mph - N/A   Mostly Cloudy
10:35 AM 50.0 °F - 39.2 °F 66% 30.03 in 10.0 mi SW 12.7 mph - N/A   Mostly Cloudy
10:55 AM 51.8 °F - 39.2 °F 62% 30.03 in 10.0 mi SW 12.7 mph - N/A   Scattered Clouds
11:15 AM 55.4 °F - 39.2 °F 54% 30.02 in 10.0 mi SW 15.0 mph 20.7 mph N/A   Partly Cloudy
11:35 AM 57.2 °F - 39.2 °F 51% 30.02 in 10.0 mi SW 16.1 mph - N/A   Clear
11:55 AM 57.2 °F - 39.2 °F 51% 30.02 in 10.0 mi SW 17.3 mph 23.0 mph N/A   Clear
12:15 PM 59.0 °F - 41.0 °F 51% 30.00 in 10.0 mi SW 13.8 mph - N/A   Clear
12:35 PM 60.8 °F - 42.8 °F 52% 29.99 in 10.0 mi SW 10.4 mph - N/A   Clear
12:55 PM 60.8 °F - 42.8 °F 52% 29.99 in 10.0 mi SW 16.1 mph 19.6 mph N/A   Clear
1:15 PM 60.8 °F - 42.8 °F 52% 29.97 in 10.0 mi WSW 15.0 mph - N/A   Clear
1:35 PM 62.6 °F - 42.8 °F 48% 29.97 in 10.0 mi WSW 13.8 mph 18.4 mph N/A   Clear
1:55 PM 62.6 °F - 42.8 °F 48% 29.96 in 10.0 mi WNW 11.5 mph 18.4 mph N/A   Clear
2:15 PM 64.4 °F - 42.8 °F 45% 29.96 in 10.0 mi West 11.5 mph 20.7 mph N/A   Clear
2:35 PM 64.4 °F - 42.8 °F 45% 29.96 in 10.0 mi West 12.7 mph - N/A   Clear
2:55 PM 66.2 °F - 44.6 °F 46% 29.95 in 10.0 mi West 15.0 mph - N/A   Clear
3:15 PM 66.2 °F - 42.8 °F 43% 29.96 in 10.0 mi WNW 16.1 mph - N/A   Clear
3:35 PM 66.2 °F - 42.8 °F 43% 29.96 in 10.0 mi NW 16.1 mph 20.7 mph N/A   Clear
3:55 PM 64.4 °F - 42.8 °F 45% 29.96 in 10.0 mi WNW 15.0 mph 19.6 mph N/A   Clear
4:15 PM 64.4 °F - 42.8 °F 45% 29.96 in 10.0 mi WNW 15.0 mph 25.3 mph N/A   Clear
4:35 PM 66.2 °F - 42.8 °F 43% 29.95 in 10.0 mi WNW 10.4 mph - N/A   Clear
4:55 PM 66.2 °F - 42.8 °F 43% 29.96 in 10.0 mi NW 12.7 mph 19.6 mph N/A   Clear
5:15 PM 64.4 °F - 42.8 °F 45% 29.96 in 10.0 mi WNW 9.2 mph - N/A   Partly Cloudy
5:35 PM 64.4 °F - 42.8 °F 45% 29.96 in 10.0 mi WNW 10.4 mph - N/A   Partly Cloudy
5:55 PM 64.4 °F - 42.8 °F 45% 29.96 in 10.0 mi WNW 10.4 mph - N/A   Partly Cloudy
6:15 PM 62.6 °F - 41.0 °F 45% 29.96 in 10.0 mi NW 9.2 mph - N/A   Clear
6:35 PM 62.6 °F - 39.2 °F 42% 29.96 in 10.0 mi NW 6.9 mph - N/A   Clear
6:55 PM 60.8 °F - 39.2 °F 45% 29.96 in 10.0 mi NNW 6.9 mph - N/A   Clear
7:15 PM 60.8 °F - 37.4 °F 42% 29.97 in 10.0 mi NNW 5.8 mph - N/A   Clear
7:35 PM 59.0 °F - 37.4 °F 45% 29.98 in 10.0 mi NNW 5.8 mph - N/A   Clear
7:55 PM 57.2 °F - 37.4 °F 48% 29.99 in 10.0 mi NNW 5.8 mph - N/A   Clear
8:15 PM 57.2 °F - 37.4 °F 48% 30.00 in 10.0 mi NNW 8.1 mph - N/A   Clear
8:35 PM 57.2 °F - 37.4 °F 48% 30.01 in 10.0 mi NNW 8.1 mph - N/A   Clear
8:55 PM 57.2 °F - 37.4 °F 48% 30.02 in 10.0 mi NNW 6.9 mph - N/A   Partly Cloudy
9:15 PM 55.4 °F - 37.4 °F 51% 30.02 in 10.0 mi North 4.6 mph - N/A   Clear
9:35 PM 53.6 °F - 37.4 °F 54% 30.03 in 10.0 mi North 5.8 mph - N/A   Partly Cloudy
9:55 PM 53.6 °F - 37.4 °F 54% 30.03 in 10.0 mi North 6.9 mph - N/A   Mostly Cloudy
10:15 PM 53.6 °F - 37.4 °F 54% 30.04 in 10.0 mi North 5.8 mph - N/A   Partly Cloudy
10:35 PM 51.8 °F - 37.4 °F 58% 30.04 in 10.0 mi North 6.9 mph - N/A   Clear
10:55 PM 51.8 °F - 37.4 °F 58% 30.05 in 10.0 mi North 5.8 mph - N/A   Clear
11:15 PM 51.8 °F - 37.4 °F 58% 30.05 in 10.0 mi North 3.5 mph - N/A   Clear
11:35 PM 50.0 °F - 37.4 °F 62% 30.05 in 10.0 mi NNE 4.6 mph - N/A   Clear
11:55 PM 48.2 °F - 37.4 °F 66% 30.05 in 10.0 mi NNE 5.8 mph - N/A   Clear